TimeCDT,TemperatureF,Dew PointF,Humidity,Sea Level PressureIn,VisibilityMPH,Wind Direction,Wind SpeedMPH,Gust SpeedMPH,PrecipitationIn,Events,Conditions,WindDirDegrees,DateUTC
12:53 AM,75.0,64.0,69,29.96,10.0,SSE,6.9,-,N/A,,Clear,150,2013-10-06 05:53:00
1:53 AM,73.9,64.0,71,29.96,10.0,SSE,4.6,-,N/A,,Clear,160,2013-10-06 06:53:00
2:53 AM,73.0,64.0,73,29.94,10.0,SSE,4.6,-,N/A,,Clear,160,2013-10-06 07:53:00
3:53 AM,72.0,64.9,78,29.94,10.0,Calm,Calm,-,N/A,,Partly Cloudy,0,2013-10-06 08:53:00
4:34 AM,71.6,66.2,83,29.97,10.0,Calm,Calm,-,N/A,,Overcast,0,2013-10-06 09:34:00
4:53 AM,72.0,66.0,81,29.95,10.0,Calm,Calm,-,N/A,,Overcast,0,2013-10-06 09:53:00
5:53 AM,72.0,68.0,87,29.96,10.0,South,3.5,-,N/A,,Overcast,180,2013-10-06 10:53:00
6:22 AM,71.6,68.0,88,29.98,10.0,Calm,Calm,-,N/A,,Mostly Cloudy,0,2013-10-06 11:22:00
6:53 AM,72.0,66.9,84,29.96,10.0,Calm,Calm,-,N/A,,Scattered Clouds,0,2013-10-06 11:53:00
7:53 AM,73.0,66.9,81,29.96,10.0,Calm,Calm,-,N/A,,Mostly Cloudy,0,2013-10-06 12:53:00
8:53 AM,75.0,68.0,79,29.96,10.0,Variable,5.8,-,N/A,,Mostly Cloudy,0,2013-10-06 13:53:00
9:53 AM,75.9,66.9,74,29.95,10.0,SE,5.8,-,N/A,,Mostly Cloudy,130,2013-10-06 14:53:00
10:53 AM,77.0,66.9,71,29.94,10.0,SE,8.1,-,N/A,,Mostly Cloudy,140,2013-10-06 15:53:00
11:53 AM,79.0,66.9,66,29.94,10.0,SSE,5.8,-,N/A,,Mostly Cloudy,160,2013-10-06 16:53:00
12:53 PM,79.0,66.0,64,29.91,10.0,South,9.2,-,N/A,,Overcast,170,2013-10-06 17:53:00
1:53 PM,75.9,68.0,76,29.87,10.0,SSE,5.8,-,0.00,Rain,Light Rain,160,2013-10-06 18:53:00
2:53 PM,73.9,68.0,82,29.85,9.0,SSW,6.9,-,0.03,Rain,Light Rain,210,2013-10-06 19:53:00
3:53 PM,72.0,70.0,93,29.86,5.0,WNW,6.9,-,0.09,Rain,Rain,290,2013-10-06 20:53:00
4:04 PM,71.6,69.8,94,29.88,5.0,SW,5.8,-,0.02,Rain,Rain,230,2013-10-06 21:04:00
4:41 PM,71.6,69.8,94,29.88,5.0,West,9.2,-,0.09,Rain,Rain,280,2013-10-06 21:41:00
4:53 PM,71.1,69.1,93,29.87,5.0,Calm,Calm,-,0.16,Rain,Rain,0,2013-10-06 21:53:00
5:24 PM,71.6,69.8,94,29.89,10.0,SE,4.6,-,0.01,,Overcast,140,2013-10-06 22:24:00
5:51 PM,71.6,69.8,94,29.89,10.0,SSE,5.8,-,0.01,,Mostly Cloudy,160,2013-10-06 22:51:00
5:53 PM,72.0,69.1,91,29.86,10.0,SSE,4.6,-,0.01,,Mostly Cloudy,160,2013-10-06 22:53:00
6:23 PM,71.6,69.8,94,29.88,10.0,Calm,Calm,-,N/A,,Overcast,0,2013-10-06 23:23:00
6:46 PM,71.6,69.8,94,29.88,10.0,Calm,Calm,-,N/A,,Mostly Cloudy,0,2013-10-06 23:46:00
6:53 PM,71.1,69.1,93,29.86,10.0,Calm,Calm,-,N/A,,Mostly Cloudy,0,2013-10-06 23:53:00
7:20 PM,71.6,68.0,88,29.89,10.0,Calm,Calm,-,N/A,,Overcast,0,2013-10-07 00:20:00
7:53 PM,71.1,69.1,93,29.86,10.0,Calm,Calm,-,N/A,,Overcast,0,2013-10-07 00:53:00
8:03 PM,71.6,68.0,88,29.89,10.0,Calm,Calm,-,N/A,,Overcast,0,2013-10-07 01:03:00
8:53 PM,71.1,69.1,93,29.87,10.0,Calm,Calm,-,0.00,,Overcast,0,2013-10-07 01:53:00
9:11 PM,71.6,69.8,94,29.89,2.5,Calm,Calm,-,0.00,,Light Drizzle,0,2013-10-07 02:11:00
9:27 PM,71.6,69.8,94,29.89,5.0,Calm,Calm,-,0.02,Rain,Light Rain,0,2013-10-07 02:27:00
9:32 PM,71.6,69.8,94,29.89,2.5,NW,3.5,-,0.03,Rain,Light Rain,320,2013-10-07 02:32:00
9:34 PM,71.6,69.8,94,29.89,2.0,NW,4.6,-,0.03,Rain,Rain,320,2013-10-07 02:34:00
9:43 PM,69.8,68.0,94,29.90,1.5,NW,20.7,25.3,0.08,Rain,Heavy Rain,310,2013-10-07 02:43:00
9:51 PM,66.2,64.4,94,29.90,2.5,NW,17.3,25.3,0.12,Rain,Rain,310,2013-10-07 02:51:00
9:53 PM,66.9,64.9,93,29.88,2.5,NW,17.3,-,0.13,Rain,Light Rain,310,2013-10-07 02:53:00
10:00 PM,66.2,64.4,94,29.90,3.0,NNW,16.1,-,0.00,Rain,Light Rain,330,2013-10-07 03:00:00
10:40 PM,60.8,59.0,94,29.94,2.0,NNW,15.0,25.3,0.09,Rain,Heavy Rain,330,2013-10-07 03:40:00
10:53 PM,60.1,57.9,93,29.94,3.0,NNW,5.8,19.6,0.11,Rain,Rain,330,2013-10-07 03:53:00
11:13 PM,57.2,55.4,94,29.95,5.0,North,8.1,-,0.02,Rain,Light Rain,350,2013-10-07 04:13:00
11:51 PM,57.2,55.4,94,29.94,4.0,North,8.1,-,0.15,Rain,Light Rain,360,2013-10-07 04:51:00
11:53 PM,57.0,55.0,93,29.93,4.0,North,6.9,-,0.16,Rain,Rain,360,2013-10-07 04:53:00